sat.trackr.live / text

‹ back to catalog

STARLINK-30590

NORAD 58090 · 2023-160R

PAYLOAD ACTIVE UNKNOWN

§ Identity

Operator
Country
US
Launch date
2023-10-18
Launch site
AFETR
Launch vehicle
Mass (kg)
RCS (m²)

Purposes: comms

External: N2YO · Heavens-Above · Gunter

§ Orbital elements

Epoch: 2026-05-24T23:58:32.138112Z

Period
94.27 min
Inclination
43.0028°
Eccentricity
0.0000953
Mean motion
15.27565211 rev/d
Perigee alt
482.4 km
Apogee alt
483.7 km
Semi-major
6,861.2 km
B*
-4.2217e-5
RAAN
10.5501°
Arg perigee
269.9142°
Mean anomaly
90.1601°
Rev number
14,457

§ Raw data

STARLINK-305901 58090U 23160R   26144.99898308 -.00001423  00000+0 -42217-4 0  99962 58090  43.0028  10.5501 0000953 269.9142  90.1601 15.27565211144576

JSON: /api/v1/satellites/58090 · /tle

For live sub-satellite position, see the globe view (requires WebGL).

§ Visibility from observer

Set your observer location to see the next 7 days of passes ≥ 10°. The values pass through the URL so the page stays shareable.

No JS? Fill the form by hand. The geolocation button needs JavaScript.